TimeEDT,TemperatureF,Dew PointF,Humidity,Sea Level PressureIn,VisibilityMPH,Wind Direction,Wind SpeedMPH,Gust SpeedMPH,PrecipitationIn,Events,Conditions,WindDirDegrees,DateUTC
12:15 AM,48.2,33.8,58,30.09,10.0,NW,5.8,-,N/A,,Clear,320,2013-03-13 04:15:00
12:35 AM,48.2,33.8,58,30.09,10.0,NW,5.8,-,N/A,,Clear,320,2013-03-13 04:35:00
12:55 AM,48.2,33.8,58,30.10,10.0,NW,5.8,-,N/A,,Clear,320,2013-03-13 04:55:00
1:15 AM,46.4,33.8,62,30.10,10.0,NW,6.9,-,N/A,,Clear,320,2013-03-13 05:15:00
1:55 AM,48.2,33.8,58,30.11,10.0,NW,5.8,-,N/A,,Clear,320,2013-03-13 05:55:00
2:15 AM,48.2,33.8,58,30.11,10.0,NNW,6.9,-,N/A,,Clear,330,2013-03-13 06:15:00
2:35 AM,48.2,33.8,58,30.11,10.0,NNW,8.1,-,N/A,,Clear,330,2013-03-13 06:35:00
2:55 AM,46.4,33.8,62,30.11,10.0,NNW,6.9,-,N/A,,Clear,330,2013-03-13 06:55:00
3:15 AM,46.4,32.0,57,30.11,10.0,NNW,8.1,-,N/A,,Clear,330,2013-03-13 07:15:00
3:35 AM,46.4,32.0,57,30.11,10.0,NNW,10.4,-,N/A,,Clear,330,2013-03-13 07:35:00
3:55 AM,46.4,32.0,57,30.12,10.0,NW,8.1,-,N/A,,Clear,320,2013-03-13 07:55:00
4:15 AM,46.4,32.0,57,30.12,10.0,NNW,8.1,-,N/A,,Clear,330,2013-03-13 08:15:00
4:55 AM,44.6,32.0,61,30.13,10.0,NW,6.9,-,N/A,,Clear,320,2013-03-13 08:55:00
5:15 AM,44.6,32.0,61,30.13,10.0,NNW,6.9,-,N/A,,Clear,330,2013-03-13 09:15:00
5:35 AM,44.6,33.8,66,30.14,10.0,NNW,6.9,-,N/A,,Clear,330,2013-03-13 09:35:00
6:15 AM,42.8,33.8,70,30.15,10.0,NW,5.8,-,N/A,,Clear,320,2013-03-13 10:15:00
6:35 AM,42.8,33.8,70,30.15,10.0,NNW,4.6,-,N/A,,Clear,330,2013-03-13 10:35:00
6:55 AM,41.0,33.8,76,30.16,10.0,NW,3.5,-,N/A,,Clear,320,2013-03-13 10:55:00
7:15 AM,41.0,33.8,76,30.17,10.0,Calm,Calm,-,N/A,,Clear,0,2013-03-13 11:15:00
7:35 AM,39.2,33.8,81,30.18,10.0,WNW,4.6,-,N/A,,Clear,300,2013-03-13 11:35:00
7:55 AM,41.0,33.8,76,30.19,10.0,WNW,4.6,-,N/A,,Clear,290,2013-03-13 11:55:00
8:15 AM,41.0,33.8,76,30.19,10.0,WNW,4.6,-,N/A,,Scattered Clouds,290,2013-03-13 12:15:00
8:35 AM,42.8,35.6,76,30.20,10.0,WNW,3.5,-,N/A,,Clear,290,2013-03-13 12:35:00
8:55 AM,44.6,33.8,66,30.21,10.0,WNW,3.5,-,N/A,,Clear,290,2013-03-13 12:55:00
9:15 AM,46.4,33.8,62,30.21,10.0,WNW,4.6,-,N/A,,Clear,300,2013-03-13 13:15:00
9:35 AM,48.2,33.8,58,30.22,10.0,WNW,5.8,-,N/A,,Clear,300,2013-03-13 13:35:00
9:55 AM,51.8,32.0,47,30.22,10.0,NW,5.8,-,N/A,,Clear,320,2013-03-13 13:55:00
10:15 AM,51.8,32.0,47,30.22,10.0,NW,6.9,-,N/A,,Clear,310,2013-03-13 14:15:00
10:35 AM,53.6,28.4,38,30.22,10.0,NNW,10.4,-,N/A,,Clear,330,2013-03-13 14:35:00
10:55 AM,55.4,26.6,33,30.22,10.0,NNW,10.4,-,N/A,,Clear,330,2013-03-13 14:55:00
11:15 AM,55.4,26.6,33,30.22,10.0,NW,6.9,18.4,N/A,,Clear,320,2013-03-13 15:15:00
11:35 AM,55.4,23.0,29,30.22,10.0,NW,10.4,-,N/A,,Clear,320,2013-03-13 15:35:00
11:55 AM,57.2,23.0,27,30.22,10.0,North,8.1,16.1,N/A,,Clear,360,2013-03-13 15:55:00
12:15 PM,59.0,26.6,29,30.21,10.0,NW,9.2,-,N/A,,Clear,320,2013-03-13 16:15:00
12:35 PM,59.0,24.8,27,30.21,10.0,NW,10.4,-,N/A,,Clear,310,2013-03-13 16:35:00
12:55 PM,59.0,26.6,29,30.20,10.0,NW,12.7,19.6,N/A,,Clear,320,2013-03-13 16:55:00
1:15 PM,60.8,23.0,23,30.19,10.0,NW,15.0,25.3,N/A,,Clear,320,2013-03-13 17:15:00
1:35 PM,60.8,26.6,27,30.18,10.0,WNW,11.5,18.4,N/A,,Clear,290,2013-03-13 17:35:00
1:55 PM,60.8,23.0,23,30.17,10.0,West,15.0,25.3,N/A,,Clear,280,2013-03-13 17:55:00
2:15 PM,62.6,23.0,22,30.15,10.0,NW,15.0,24.2,N/A,,Clear,320,2013-03-13 18:15:00
2:35 PM,62.6,24.8,24,30.14,10.0,WNW,12.7,20.7,N/A,,Clear,300,2013-03-13 18:35:00
2:55 PM,62.6,21.2,20,30.14,10.0,NW,18.4,28.8,N/A,,Clear,310,2013-03-13 18:55:00
3:15 PM,62.6,19.4,19,30.13,10.0,NW,17.3,26.5,N/A,,Clear,310,2013-03-13 19:15:00
3:35 PM,62.6,21.2,20,30.11,10.0,West,20.7,24.2,N/A,,Clear,270,2013-03-13 19:35:00
3:55 PM,64.4,19.4,18,30.11,10.0,West,21.9,28.8,N/A,,Clear,280,2013-03-13 19:55:00
4:15 PM,64.4,21.2,19,30.11,10.0,WNW,9.2,25.3,N/A,,Clear,290,2013-03-13 20:15:00
4:35 PM,62.6,19.4,19,30.10,10.0,WNW,9.2,18.4,N/A,,Clear,290,2013-03-13 20:35:00
4:55 PM,62.6,17.6,18,30.11,10.0,NW,16.1,23.0,N/A,,Clear,310,2013-03-13 20:55:00
5:15 PM,62.6,17.6,18,30.11,10.0,WNW,13.8,21.9,N/A,,Clear,300,2013-03-13 21:15:00
5:35 PM,62.6,12.2,14,30.10,10.0,NNW,18.4,27.6,N/A,,Clear,330,2013-03-13 21:35:00
5:55 PM,62.6,12.2,14,30.11,10.0,NW,9.2,24.2,N/A,,Clear,310,2013-03-13 21:55:00
6:15 PM,60.8,12.2,15,30.12,10.0,NW,15.0,23.0,N/A,,Clear,320,2013-03-13 22:15:00
6:55 PM,59.0,10.4,15,30.13,10.0,NW,11.5,24.2,N/A,,Clear,310,2013-03-13 22:55:00
7:15 PM,59.0,10.4,15,30.13,10.0,NW,13.8,19.6,N/A,,Clear,310,2013-03-13 23:15:00
7:35 PM,57.2,12.2,17,30.14,10.0,NW,9.2,18.4,N/A,,Clear,310,2013-03-13 23:35:00
7:55 PM,55.4,14.0,20,30.15,10.0,NW,8.1,-,N/A,,Clear,310,2013-03-13 23:55:00
8:15 PM,55.4,17.6,23,30.16,10.0,NW,10.4,16.1,N/A,,Clear,320,2013-03-14 00:15:00
8:35 PM,53.6,15.8,22,30.16,10.0,NW,11.5,17.3,N/A,,Clear,320,2013-03-14 00:35:00
8:55 PM,53.6,15.8,22,30.17,10.0,NW,9.2,-,N/A,,Clear,320,2013-03-14 00:55:00
9:15 PM,51.8,15.8,24,30.18,10.0,NW,10.4,16.1,N/A,,Clear,320,2013-03-14 01:15:00
9:35 PM,51.8,14.0,22,30.19,10.0,NW,10.4,17.3,N/A,,Clear,320,2013-03-14 01:35:00
9:55 PM,51.8,15.8,24,30.20,10.0,NNW,11.5,16.1,N/A,,Clear,330,2013-03-14 01:55:00
10:15 PM,50.0,17.6,28,30.21,10.0,NNW,10.4,17.3,N/A,,Clear,330,2013-03-14 02:15:00
10:35 PM,50.0,17.6,28,30.21,10.0,NW,9.2,-,N/A,,Clear,310,2013-03-14 02:35:00
10:55 PM,50.0,17.6,28,30.22,10.0,NNW,12.7,16.1,N/A,,Clear,330,2013-03-14 02:55:00
11:15 PM,48.2,19.4,32,30.23,10.0,NNW,9.2,-,N/A,,Clear,330,2013-03-14 03:15:00
11:35 PM,48.2,19.4,32,30.23,10.0,NNW,9.2,-,N/A,,Clear,330,2013-03-14 03:35:00
11:55 PM,46.4,21.2,37,30.23,10.0,NNW,8.1,-,N/A,,Clear,330,2013-03-14 03:55:00